Regional Weather Roundup
Issued by NWS

Home | Current Version | Previous Version | Graphics & Text | Print | Product List | Glossary On
Versions: 1 2 3 4 5 6 7 8 9 10 11 12 13 14 15 16 17 18 19 20 21 22 23 24 25 26 27 28 29 30 31 32 33 34 35 36 37 38 39 40 41 42 43 44 45 46 47 48 49 50
000
ASUS45 KBOU 270310
RWRCO

WEATHER ROUNDUP FOR COLORADO
NATIONAL WEATHER SERVICE DENVER/BOULDER CO
900 PM MDT SAT MAY 26 2018

NOTE: "FAIR" INDICATES FEW OR NO CLOUDS BELOW 12000 FEET WITH NO
SIGNIFICANT WEATHER AND/OR OBSTRUCTIONS TO VISIBILITY.

COZ001>005-013-030-031-270400-
...NORTHWEST COLORADO...

CITY           SKY/WX    TMP DP  RH WIND       PRES   REMARKS
CRAIG          FAIR      73  29  19 SW20G37   29.84R
HAYDEN         FAIR      66  29  24 SW10      29.89R
MEEKER         FAIR      73  25  16 VRB3      29.87R
RANGELY        FAIR      75  17  11 SW8       29.74S
RABBIT EARS PA FAIR      52  18  25 S5        30.19R
STEAMBOAT SPGS FAIR      66  25  21 E8        29.89R
WALDEN         FAIR      59  21  23 SE9       30.02S
$$

COZ006>008-011-270400-
...WEST CENTRAL VALLEYS...

CITY           SKY/WX    TMP DP  RH WIND       PRES   REMARKS
GRAND JUNCTION FAIR      82  21  10 SW12      29.71S
MONTROSE       FAIR      74  16  11 S8        29.83R
EAGLE          FAIR      74  19  12 S6        29.90R
RIFLE          LGT RAIN  78  25  14 SW12G39   29.80R
DELTA          FAIR      82  20  10 S12       29.77S
NUCLA          FAIR      75  21  13 S23G53    29.91R
$$

COZ017>023-064>068-270400-
...SOUTHWEST COLORADO...

CITY           SKY/WX    TMP DP  RH WIND       PRES   REMARKS
DURANGO        FAIR      71  19  14 SE9       29.93F
CORTEZ         FAIR      71  18  13 S14       29.86R
PAGOSA SPRINGS FAIR      68   8   9 SE5       30.05F
TELLURIDE      MOCLDY    63  17  16 S8G21     30.10R
WOLF CREEK PAS FAIR      45  14  29 S26G40    30.35F
$$

COZ009-010-012-014-032>034-037-058>063-270400-
...CENTRAL COLORADO...

CITY           SKY/WX    TMP DP  RH WIND       PRES   REMARKS
ASPEN          FAIR      64  18  17 S10       29.98S
BUENA VISTA    FAIR      63  11  13 SE7       30.05S
COPPER MTN     FAIR      54  12  19 SE21G36   30.32R
BERTHOUD PASS  FAIR      45  32  61 S21G32    30.37R
COTTONWOOD PAS FAIR      64   3   9 CALM      30.19S
GUNNISON       FAIR      63  20  19 S10       30.02R
GRANBY         FAIR      59  22  24 CALM      30.04S
KREMMLING      FAIR      72  10   9 CALM      29.97R
LEADVILLE      FAIR      56  14  19 SE6       30.17S
MONARCH PASS   FAIR      50  10  20 MISG      30.45S
SALIDA         FAIR      69  12  11 SW6       30.09S
SUNLIGHT       RAIN      50  21  32 S7G21     30.24S
WILKERSON PASS FAIR      52   9  17 S9G22     30.32R
$$

COZ069>075-270400-
...SAN LUIS VALLEY/SANGRE DE CRISTO MOUNTAINS...

CITY           SKY/WX    TMP DP  RH WIND       PRES   REMARKS
ALAMOSA        FAIR      60  28  29 S6        30.04F
DEL NORTE      FAIR      64  17  16 CALM      30.07S
LA VETA PASS   FAIR      57  10  15 S20G29    30.35F
SAGUACHE       NOT AVBL
$$

COZ035-036-038>040-270400-
...NORTHERN COLORADO FRONT RANGE...

CITY           SKY/WX    TMP DP  RH WIND       PRES   REMARKS
DENVER INTL AP MOCLDY    72  26  18 SE10      29.80F
AURORA         NOT AVBL
FRONT RANGE AP FAIR      78  28  15 SE13      29.83S
ERIE MUNI ARPT FAIR      69  48  48 CALM      29.83F
BOULDER MUN AP FAIR      73  43  33 CALM      29.79F
CENTENNIAL     MOCLDY    69  30  23 S7        29.85S
BROOMFIELD     CLOUDY    73  37  27 CALM      29.83
FORT COLLINS   FAIR      76  50  40 CALM      29.78S
LONGMONT       FAIR      72  49  44 S3        29.79F
$$

COZ041-046-047-076>085-087-088-270400-
...PIKES PEAK/PALMER DIVIDE AND SOUTHERN FOOTHILLS...

CITY           SKY/WX    TMP DP  RH WIND       PRES   REMARKS
COLO. SPRINGS  CLOUDY    76  12   8 SW10      29.91R
A. F. ACADEMY  NOT AVBL
SCHRIEVER AFB  NOT AVBL
CHEYENNE MTN   NOT AVBL
ELLICOTT         N/A    N/A N/A N/A S10       29.90R
FALCON         FAIR      69  14  12 SW10      29.97S
FORT CARSON    FAIR      76   8   7 SW6       29.87S
LIMON          FAIR      77  35  21 SE21G33   29.86R
MONUMENT HILL  FAIR      64  19  17 S12       29.99R
CANON CITY     CLEAR     81  16   9 SW10      29.84S
WALSENBURG     FAIR      72  14  11 SW8       29.93R
TRINIDAD       FAIR      74  23  15 MISG      29.93R
$$

COZ042>045-048>051-090-091-270400-
...NORTHEAST COLORADO...

CITY           SKY/WX    TMP DP  RH WIND       PRES   REMARKS
GREELEY ARPT   FAIR      72  53  51 CALM      29.76S
AKRON          FAIR      77  44  30 SE24G36   29.81S
BURLINGTON     FAIR      75  43  31 SE15      29.85R
WRAY           FAIR      79  37  22 SE21G26   29.80R
YUMA           FAIR      73  34  23 SE16      29.80S
STERLING       FAIR      81  45  28 SE20G26   29.75R
HOLYOKE        FAIR      79  43  27 SE15      29.80S
FORT MORGAN    FAIR      76  36  24 SE9       29.78S
$$

COZ086-089-092>099-270400-
...SOUTHEAST COLORADO...

CITY           SKY/WX    TMP DP  RH WIND       PRES   REMARKS
PUEBLO         FAIR      80  19  10 SW6       29.79R
LA JUNTA       FAIR      85  29  13 S16       29.80R
LAMAR          FAIR      83  50  31 SE20G31   29.78R
SPRINGFIELD      N/A     75  54  47 SE14      29.88R
$$



USA.gov is the U.S. government's official web portal to all federal, state and local government web resources and services.